Regional Weather Roundup
Issued by NWS

Home | Current Version | Previous Version | Text Only | Print | Product List | Glossary On
Versions: 1 2 3 4 5 6 7 8 9 10 11 12 13 14 15 16 17 18 19 20 21 22 23 24 25 26 27 28
000
ASUS45 KSLC 250910
RWRUT

UTAH REGIONAL WEATHER ROUNDUP
NATIONAL WEATHER SERVICE SALT LAKE CITY UT
300 AM MDT THU MAY 25 2017

UTZ001>011-023>025-251000-

NORTHERN UTAH

CITY           SKY/WX    TMP DP  RH WIND       PRES   REMARKS
BRIGHAM CITY   CLOUDY    59  32  35 N18       29.67F
HILL AFB       CLOUDY    58  28  31 N15G26    29.68R
LOGAN          LGT RAIN  54  38  54 N14       29.71R
OGDEN          CLOUDY    59  30  33 N18G29    29.66R
SALT LAKE CITY CLOUDY    61  38  42 N17       29.63R
WENDOVER       CLOUDY    58  34  40 W9        29.68F
HEBER CITY     PTCLDY    46  43  87 SE7       29.62R

$$

UTZ011>015-024>027-251000-

CENTRAL/NORTHEAST UTAH

CITY           SKY/WX    TMP DP  RH WIND       PRES   REMARKS
PROVO AIRPORT  MOCLDY    63  40  42 NW30G36   29.61R
MOAB/CANYONLAN CLOUDY    67  36  31 SW3       29.58F
DELTA          CLOUDY    68  32  26 NW17G23   29.62R
PRICE          MOCLDY    56  38  50 N7        29.66S
VERNAL         CLOUDY    55  41  59 CALM      29.60F

$$

UTZ013>016-019>022-027-251000-

SOUTHERN UTAH

CITY           SKY/WX    TMP DP  RH WIND       PRES   REMARKS
BRYCE CANYON   PTCLDY    41  27  57 CALM      29.86F
CEDAR CITY     PTCLDY    61  30  31 SE9       29.71F
MILFORD        CLOUDY    65  31  28 S9        29.64F
ST GEORGE      MOSUNNY   77  24  14 S12       29.55F
HANKSVILLE     PTCLDY    70  27  19 SW7       29.62S
BLANDING       MOCLDY    66  23  19 SW5       29.81S

$$

REGIONAL REPORTS     COLORADO/ARIZONA

CITY           SKY/WX    TMP DP  RH WIND       PRES   REMARKS
CRAIG, CO      CLOUDY    56  40  55 SE6       29.68F
GRAND JUNCTION CLEAR     64  34  32 E3        29.60S
RIFLE, CO      PTCLDY    63  36  36 SE7       29.64F
MONTROSE, CO   CLEAR     58  30  34 SE8       29.70F
CORTEZ, CO     CLOUDY    63  27  25 S14       29.76F
COLORADO CITY    N/A     57  25  28 CALM      29.73F
PAGE, AZ       PTCLDY    77  20  12 SW12G20   29.63F
GRAND CANYON   MOCLDY    61  17  18 SW12      29.88F
KINGMAN, AZ    CLEAR     71  21  15 MISG      29.68S
FLAGSTAFF, AZ  PTCLDY    55  12  18 SW7       29.93F

$$

REGIONAL REPORTS    NEVADA/IDAHO/WYOMING

CITY           SKY/WX    TMP DP  RH WIND       PRES   REMARKS
LAS VEGAS, NV  PTCLDY    81  28  14 S13G21    29.51F
ELY, NY        MOCLDY    54  33  45 N8        29.76R
ELKO, NV       CLOUDY    48  42  80 W3        29.75R
POCATELLO, ID  CLOUDY    49  29  46 NW7       29.68R
BURLEY, ID     PTCLDY    49  27  42 W18       29.67R
FORT BRIDGER,  PTSUNNY   47  40  76 NW16      29.75R
EVANSTON, WY   LGT RAIN  44  38  79 N18G26    29.74R
ROCK SPRINGS,  CLOUDY    46  36  68 N16       29.68R
KEMMERER, WY     N/A     39  36  87 NW23G31   29.75R WCI  29

$$




USA.gov is the U.S. government's official web portal to all federal, state and local government web resources and services.